EHI
0 0 0 0 0 0 0 0 0 0 0 0 0 0 0 0 0 0 0 0 0 0 0 0 0 0 0 0 0 0 0 0 0 0 0 0 0 0 0 0 0 0 0 0 0 0 0 0 0
0 0 0 0 0 0 0 0 0 0 0 0 0 0 0 0 0 0 0 0 0 0 0 0 0 0 0 0 0 0 0 0 0 0 0 0 0 0 0 0 0 0 0 0 0 0 0 0 0
0 0 0 0 0 0 0 0 0 0 0 0 0 0 0 0 0 0 0 0 0 0 0 0 0 0 0 0 0 0 0 0 0 0 0 0 0 0 0 0 0 0 0 0 0 0 0 0 0
0 0 0 0 0 0 0 0 0 0 0 0 0 0 0 0 0 0 0 0 0 0 0 0 0 0 0 0 0 0 0 0 0 0 0 0 0 0 0 0 0 0 0 0 0 0 0 0 0
0 0 0 0 0 0 0 0 0 0 0 0 0 0 0 0 0 0 0 0 0 0 0 0 0 0 0 0 0 0 0 0 0 0 0 0 0 0 0 0 0 0 0 0 0 0 0 0 0
0 0 0 0 0 0 0 0 0 0 0 0 0 0 0 0 0 0 0 0 0 0 0 0 0 0 0 0 0 0 0 0 0 0 0 0 0 0 0 0 0 0 0 0 0 0 0 0 0
0 0 0 0 0 0 0 0 0 0 0 0 0 0 0 0 0 0 0 0 0 0 0 0 0 0 0 0 0 0 0 0 0 0 0 0 0 0 0 0 0 0 0 0 0 0 0 0 0
0 0 0 0 0 0 0 0 0 0 0 0 0 0 0 0 0 0 0 0 0 0 0 0 0 0 0 0 0 0 0 0 0 0 0 0 0 0 0 0 0 0 0 0 0 0 0 0 0
0 0 0 0 0 0 0 0 0 0 0 0 0 0 0 0 0 0 0 0 0 0 0 0 0 0 0 0 0 0 0 0 0 0 0 0 0 0 0 0 0 0 0 0 0 0 0 0 0
0 0 0 0 0 0 0 0 0 0 0 0 0 0 0 0 0 0 0 0 0 0 0 0 0 0 0 0 0 0 0 0 0 0 0 0 0 0 0 0 0 0 0 0 0 0 0 0 0
0 0 0 0 0 0 0 0 0 0 0 0 0 0 0 0 0 0 0 0 0 0 0 0 0 0 0 0 0 0 0 0 0 0 0 0 0 0 0 0 0 0 0 0 0 0 0 0 0
0 0 0 0 0 0 0 0 0 0 0 0 0 0 0 0 0 0 0 0 0 0 0 0 0 0 0 0 0 0 0 0 0 0 0 0 0 0 0 0 0 0 0 0 0 0 0 0 0
0 0 0 0 0 0 0 0 0 0 0 0 0 0 0 0 0 0 0 0 0 0 0 0 0 0 0 0 0 0 0 0 0 0 0 0 0 0 0 0 0 0 0 0 0 0 0 0 0
0 0 0 0 0 0 0 0 0 0 0 0 0 0 0 0 0 0 0 0 0 0 0 0 0 0 0 0 0 0 0 0 0 0 0 0 0 0 0 0 0 0 0 0 0 0 0 0 0
0 0 0 0 0 0 0 0 0 0 0 0 0 0 0 0 0 0 0 0 0 0 0 0 0 0 0 0 0 0 0 0 0 0 0 0 0 0 0 0 0 0 0 0 0 0 0 0 0
0 0 0 0 0 0 0 0 0 0 0 0 0 0 0 0 0 0 0 0 0 0 0 0 0 0 0 0 0 0 0 0 0 0 0 0 0 0 0 0 0 0 0 0 0 0 0 0 0
0 0 0 0 0 0 0 0 0 0 0 0 0 0 0 0 0 0 0 0 0 0 0 0 0 0 0 0 0 0 0 0 0 0 0 0 0 0 0 0 0 0 0 0 0 0 0 0 0
0 0 0 0 0 0 0 0 0 0 0 0 0 0 0 0 0 0 0 0 0 0 0 0 0 0 0 0 0 0 0 0 0 0 0 0 0 0 0 0 0 0 0 0 0 0 0 0 0
0 0 0 0 0 0 0 0 0 0 0 0 0 0 0 0 0 0 0 0 0 0 0 0 0 0 0 0 0 0 0 0 0 0 0 0 0 0 0 0 0 0 0 0 0 0 0 0 0
0 0 0 0 0 0 0 0 0 0 0 0 0 0 0 0 0 0 0 0 0 0 0 0 0 0 0 0 0 0 0 0 0 0 0 0 0 0 0 0 0 0 0 0 0 0 0 0 0
0 0 0 0 0 0 0 0 0 0 0 0 0 0 0 0 0 0 0 0 0 0 0 0 0 0 0 0 0 0 0 0 0 0 0 0 0 0 0 0 0 0 0 0 0 0 0 0 0
0 0 0 0 0 0 0 0 0 0 0 0 0 0 0 0 0 0 0 0 0 0 0 0 0 0 0 0 0 0 0 0 0 0 0 0 0 0 0 0 0 0 0 0 0 0 0 0 0
0 0 0 0 0 0 0 0 0 0 0 0 0 0 0 0 0 0 0 0 0 0 0 0 0 0 0 0 0 0 0 0 0 0 0 0 0 0 0 0 0 0 0 0 0 0 0 0 0
0 0 0 0 0 0 0 0 0 0 0 0 0 0 0 0 0 0 0 0 0 0 0 0 0 0 0 0 0 0 0 0 0 0 0 0 0 0 0 0 0 0 0 0 0 0 0 0 0
0 0 0 0 0 0 0 0 0 0 0 0 0 0 0 0 0 0 0 0 0 0 0 0 0 0 0 0 0 0 0 0 0 0 0 0 0 0 0 0 0 0 0 0 0 0 0 0 0
0 0 0 0 0 0 0 0 0 0 0 0 0 0 0 0 0 0 0 0 0 0 0 0 0 0 0 0 0 0 0 0 0 0 0 0 0 0 0 0 0 0 0 0 0 0 0 0 0
0 0 0 0 0 0 0 0 0 0 0 0 0 0 0 0 0 0 0 0 0 0 0 0 0 0 0 0 0 0 0 0 0 0 0 0 0 0 0 0 0 0 0 0 0 0 0 0 0
0 0 0 0 0 0 0 0 0 0 0 0 0 0 0 0 0 0 0 0 0 0 0 0 0 0 0 0 0 0 0 0 0 0 0 0 0 0 0 0 0 0 0 0 0 0 0 0 0
0 0 0 0 0 0 0 0 0 0 0 0 0 0 0 0 0 0 0 0 0 0 0 0 0 0 0 0 0 0 0 0 0 0 0 0 0 0 0 0 0 0 0 0 0 0 0 0 0
0 0 0 0 0 0 0 0 0 0 0 0 0 0 0 0 0 0 0 0 0 0 0 0 0 0 0 0 0 0 0 0 0 0 0 0 0 0 0 0 0 0 0 0 0 0 0 0 0
Wind_Speed
11 12 8 3 3 5 8 7 3 3 3 5 6 3 4 7 6 7 5 8 14 15 16 15 16 16 15 15 15 14 14 13 13 12 12 12 12 12 13 13 13 14 14 14 14 14 14 14 14
10 9 4 3 4 6 7 7 3 4 5 7 5 0 2 6 9 9 6 9 15 15 15 14 17 16 15 16 15 15 14 13 13 12 12 12 12 12 12 13 13 13 13 13 13 13 13 14 13
12 9 4 4 5 8 5 6 5 6 7 5 4 1 3 7 10 8 8 11 13 13 13 15 18 16 16 16 15 15 14 13 13 12 11 11 11 11 12 12 12 12 12 12 12 12 12 13 12
6 3 4 6 10 9 5 3 6 8 5 3 4 4 5 6 6 10 11 12 13 12 13 15 18 17 17 16 15 15 14 14 13 12 11 11 11 11 11 11 11 11 11 11 11 11 11 11 11
4 4 6 7 11 7 2 2 4 6 7 6 5 4 7 6 13 14 11 12 12 12 14 15 18 18 17 16 16 15 14 13 13 12 11 11 10 10 10 10 10 10 10 10 10 10 10 10 10
4 4 6 8 11 7 2 3 2 4 7 8 5 3 6 9 12 11 10 10 11 12 14 14 18 17 17 16 16 15 15 14 13 12 11 11 10 10 9 9 8 8 8 8 8 8 8 8 8
5 5 8 10 7 4 4 4 5 6 5 6 5 3 8 9 10 11 9 9 11 12 14 12 11 12 15 15 16 16 15 14 13 12 11 11 10 9 9 8 7 7 6 6 6 6 5 5 5
4 5 8 9 7 3 4 3 3 4 3 3 3 1 9 10 10 10 9 8 10 11 13 13 11 10 9 10 14 15 14 14 13 12 11 10 9 9 9 8 6 5 4 4 4 3 3 2 1
4 5 7 7 5 2 5 3 3 2 3 1 3 6 9 12 11 9 7 6 8 10 11 13 12 11 10 10 12 12 13 12 12 11 12 9 5 6 6 7 7 5 3 3 2 1 1 2 3
5 5 8 5 3 2 3 3 3 3 5 4 5 7 9 9 9 10 10 10 10 10 11 12 12 12 11 10 10 7 7 7 7 7 7 5 4 4 5 8 7 5 4 4 4 4 4 5 2
7 8 9 7 4 5 3 2 3 4 6 6 7 12 12 10 9 10 10 10 10 11 10 11 12 12 11 7 8 6 5 6 6 8 7 5 4 3 4 3 4 4 5 3 4 4 4 3 1
10 10 10 7 0 0 4 4 5 6 7 3 0 9 12 11 11 11 11 11 10 12 11 10 11 11 10 9 8 6 5 5 5 6 7 4 3 3 3 3 3 3 2 2 2 2 3 2 2
13 11 10 6 3 4 5 7 7 8 7 4 2 2 8 10 10 10 11 11 11 12 12 11 11 11 10 9 7 7 6 7 6 5 6 6 4 4 3 3 3 2 2 2 2 2 2 1 1
8 9 11 9 7 6 7 8 9 9 8 6 5 6 7 9 10 9 10 10 11 13 13 11 11 11 10 8 7 7 6 6 6 6 6 6 5 4 3 3 3 2 2 1 1 1 1 1 1
7 8 9 9 9 8 6 10 12 12 9 8 8 8 9 10 9 9 9 9 10 13 13 12 12 11 11 10 8 7 6 6 6 6 6 6 5 5 4 3 3 2 2 2 1 1 1 1 1
7 8 10 10 10 7 6 10 9 7 9 9 9 8 8 9 9 8 8 8 8 11 13 14 11 12 12 10 9 6 7 7 6 6 6 7 6 5 4 3 3 3 2 1 1 0 0 1 1
10 10 11 10 10 8 9 8 8 5 6 7 8 8 8 8 9 9 9 9 9 10 13 14 12 12 12 11 8 7 7 7 6 6 6 7 7 6 5 3 3 3 2 2 1 1 0 1 2
9 12 11 10 8 9 9 9 9 7 7 8 9 9 9 9 10 9 10 10 10 9 12 13 13 11 10 9 7 6 6 6 6 6 6 8 6 6 5 3 3 3 3 2 1 1 1 0 0
12 10 9 7 5 6 8 10 10 9 8 9 9 9 9 9 8 7 9 9 9 9 10 13 13 12 10 9 9 8 7 6 5 5 7 8 7 6 5 3 3 3 3 3 2 2 0 0 1
16 13 11 7 4 5 7 10 10 11 12 11 11 10 9 8 6 5 6 8 9 10 10 12 13 13 11 9 8 7 6 5 5 5 6 7 7 7 5 5 4 4 3 3 2 2 1 0 1
15 13 11 8 5 6 6 10 13 13 13 12 10 9 8 8 7 5 6 7 8 9 10 10 12 12 12 10 7 6 5 4 4 5 5 6 7 7 6 5 5 4 4 3 3 3 2 1 0
13 11 10 8 7 6 6 8 8 9 10 10 10 8 7 6 5 5 6 7 8 8 9 9 10 12 12 12 11 12 9 7 6 6 5 6 7 7 7 6 6 5 4 4 3 3 2 2 1
10 7 7 7 7 9 9 9 8 9 10 9 9 8 6 4 4 5 6 7 7 7 8 8 9 10 11 12 12 12 8 6 6 7 8 6 6 7 7 6 6 5 4 4 4 3 2 2 2
8 5 4 5 5 11 12 11 8 8 9 5 5 5 5 4 4 5 5 5 6 6 7 7 9 9 10 11 12 12 11 10 10 10 9 7 5 5 7 7 6 5 4 5 4 3 3 2 1
10 7 5 6 7 9 9 10 8 6 4 3 3 3 4 4 4 5 6 6 7 8 8 7 9 9 11 12 12 12 11 11 12 11 10 9 6 5 7 6 6 5 5 5 4 4 3 3 2
14 14 10 8 6 5 7 9 6 5 5 4 3 3 3 4 4 4 5 6 7 9 9 9 9 9 10 11 11 10 10 9 8 9 9 9 7 6 8 7 7 7 6 5 4 3 3 3 3
16 16 12 7 7 5 5 6 7 6 5 5 5 4 4 5 5 5 6 6 8 9 9 9 10 9 10 11 10 9 10 9 9 9 8 7 7 7 9 8 7 7 6 6 5 3 4 3 3
12 11 7 9 6 7 7 9 8 8 8 7 6 5 5 6 6 6 6 7 7 8 9 9 9 10 9 10 9 8 9 9 9 9 9 9 9 9 10 8 8 7 6 6 5 4 4 4 3
15 16 10 8 8 5 5 5 5 7 8 7 6 5 6 6 6 6 6 7 7 8 9 9 9 9 9 10 9 9 8 9 9 9 9 9 8 10 10 9 8 8 7 6 5 5 5 5 4
17 18 15 10 8 8 5 5 1 5 7 7 6 6 6 6 6 6 7 7 7 8 8 8 8 9 9 9 9 9 8 9 9 9 9 9 10 9 9 8 8 7 7 6 6 5 5 5 5
Wind_Direction
280 258 246 239 234 232 237 240 228 121 113 78 68 28 29 41 51 111 160 145 124 135 142 154 152 149 144 137 131 125 122 117 112 106 100 96 91 87 84 81 78 76 74 73 71 70 69 67 65
283 268 245 239 236 235 227 216 191 141 108 92 93 155 104 85 93 115 139 127 131 137 143 153 152 150 147 140 135 129 127 122 117 111 106 100 95 90 87 84 80 78 76 74 72 71 70 68 66
268 266 239 226 236 244 235 163 157 120 109 125 149 179 56 99 115 129 138 134 134 137 144 149 154 154 149 143 138 135 132 127 123 117 112 106 100 95 90 86 83 82 80 78 75 72 70 69 67
253 236 245 246 244 241 257 146 131 128 131 172 175 142 90 68 95 118 132 138 136 139 140 146 156 155 151 146 142 141 138 134 129 125 119 112 105 100 95 91 88 86 84 81 78 75 71 70 68
246 241 233 246 255 257 228 98 125 157 157 187 220 137 103 88 102 120 141 142 142 143 138 148 157 157 155 151 147 144 142 139 136 131 126 119 112 107 102 98 94 90 86 83 80 77 74 71 67
236 241 237 234 239 235 203 126 155 218 177 178 202 161 118 131 124 138 145 145 145 142 138 150 160 160 159 156 152 150 148 146 143 140 134 129 123 119 113 106 102 96 91 86 82 79 75 69 64
250 254 259 259 244 209 181 146 191 219 213 176 177 168 129 145 136 142 146 150 144 141 141 149 159 161 163 160 157 155 155 152 149 148 143 138 135 132 125 119 112 105 97 90 84 79 73 66 60
266 273 258 260 258 225 143 146 221 239 237 137 152 199 140 141 139 143 149 149 143 143 146 154 162 163 162 159 159 159 159 158 157 153 148 147 149 145 142 137 129 123 115 105 96 85 72 67 58
270 257 257 249 246 225 127 164 208 299 300 138 105 68 111 130 143 143 147 147 148 153 154 159 165 165 164 163 163 160 161 163 159 155 153 153 162 161 159 146 150 154 151 145 140 156 230 248 239
216 245 256 288 335 342 132 186 200 196 250 211 136 109 119 140 154 158 165 170 167 169 168 164 167 166 166 166 159 164 166 163 164 159 163 174 174 159 156 147 166 180 192 203 209 226 247 251 224
216 239 264 282 322 350 345 257 238 216 239 227 184 156 153 164 171 179 183 182 178 173 174 169 166 165 166 160 161 168 167 164 178 168 170 175 156 145 143 155 173 198 209 216 217 231 234 234 196
239 245 253 265 287 332 286 276 266 243 253 281 226 151 160 174 185 191 193 188 177 175 178 172 164 164 165 161 165 167 163 168 176 171 169 164 153 158 161 171 178 190 194 197 212 234 247 249 241
232 250 260 256 219 222 257 267 268 262 265 289 337 133 174 187 197 200 199 193 179 176 175 175 168 166 165 162 166 169 168 168 171 167 170 166 158 168 176 183 175 183 186 187 214 245 268 288 327
241 238 248 248 234 224 236 254 256 253 251 249 239 223 208 209 210 206 200 196 183 175 173 173 172 168 165 166 167 169 168 164 168 165 171 171 164 172 175 180 169 183 182 193 214 257 286 325 330
262 264 256 240 227 222 233 251 245 246 242 239 236 228 222 220 215 212 203 196 185 172 170 172 175 171 169 170 170 168 165 163 166 166 174 174 170 168 168 174 178 185 179 181 196 302 351 324 312
237 242 247 239 219 198 202 251 253 226 216 230 238 239 230 222 214 208 204 195 187 168 168 172 175 176 173 172 172 170 168 168 167 167 173 176 173 168 168 173 185 174 155 159 168 198 322 307 310
229 231 235 234 204 186 199 245 259 228 205 226 236 240 237 226 213 206 200 191 186 173 167 169 173 177 174 171 171 171 168 169 168 166 166 172 174 172 168 176 176 159 152 157 161 139 123 340 330
214 223 232 230 192 189 208 237 255 255 230 231 234 238 240 233 219 204 194 186 182 177 167 166 170 175 170 166 169 169 168 168 164 162 165 167 172 174 168 165 165 151 146 152 155 156 147 165 328
246 249 244 239 183 185 223 244 250 252 245 242 241 240 240 239 229 204 187 176 171 171 165 166 169 175 171 171 174 175 176 167 162 162 165 166 166 168 162 155 155 143 148 159 147 129 104 18 41
238 252 261 268 217 206 239 254 257 250 246 238 237 240 242 246 240 205 177 169 170 171 170 168 171 175 176 175 174 170 163 161 158 155 162 164 164 161 159 157 154 146 140 134 130 125 116 87 93
225 233 243 256 262 241 253 261 252 249 242 238 233 231 236 235 228 203 179 175 172 175 176 175 174 174 173 165 158 152 141 134 147 160 165 166 161 157 155 158 148 145 145 148 142 135 139 144 108
226 223 238 255 268 264 247 271 256 256 246 234 223 218 227 229 211 186 178 179 179 178 171 173 172 171 170 165 167 167 169 168 171 164 161 161 158 153 152 149 144 144 143 142 145 137 138 133 152
222 218 228 240 254 263 260 269 258 240 241 229 209 203 203 197 186 181 180 182 175 165 163 167 168 169 168 169 170 173 172 166 151 153 157 158 152 149 149 147 144 146 144 141 136 132 135 141 152
205 204 233 248 248 249 235 242 263 228 228 208 187 179 174 179 180 173 171 161 156 151 153 160 165 170 169 171 174 178 174 167 159 161 163 160 153 150 152 148 146 146 141 139 140 140 143 145 143
194 178 198 209 217 237 213 224 242 221 202 179 178 173 165 167 163 164 162 159 156 153 158 166 171 173 172 175 179 183 177 169 166 165 165 161 158 159 161 151 151 147 143 142 141 146 158 165 169
197 192 196 196 209 221 200 224 242 217 171 156 168 169 161 152 152 154 157 159 157 159 165 173 178 176 176 178 182 182 174 168 166 165 163 165 163 161 156 154 154 150 148 148 150 157 171 172 183
197 207 220 262 286 286 240 230 227 208 175 166 174 170 167 156 150 152 157 161 161 165 173 179 180 179 179 180 181 179 171 166 163 160 157 158 155 152 153 156 154 152 152 156 159 170 181 179 192
206 189 194 215 219 241 250 245 238 208 192 183 181 172 160 152 151 157 165 167 165 167 171 178 180 179 177 178 177 173 168 163 158 155 157 155 152 151 153 157 156 156 159 164 166 173 183 184 196
200 202 194 198 217 210 230 237 216 185 166 164 165 155 150 156 161 168 168 166 163 163 169 178 179 173 174 174 169 164 164 159 155 156 157 154 151 153 157 158 158 161 166 170 172 183 185 194 207
206 207 198 198 206 214 238 262 105 123 134 140 145 149 150 158 164 165 162 162 164 167 172 176 176 172 173 169 165 164 159 155 156 158 157 154 153 156 158 157 159 165 170 174 179 190 191 197 212